Weather History for Wadena, MN

Change the Weather History Date:

Wednesday, August 21, 2013

  Actual Average Record
Temperature  
Mean Temperature 75 °F -  
Max Temperature 86 °F 76 °F 95 °F (1947)
Min Temperature 64 °F 56 °F 30 °F (2004)
Cooling Degree Days 10    
Growing Degree Days 25 (Base 50)    
Moisture  
Dew Point 61 °F    
Average Humidity 67    
Maximum Humidity 100    
Minimum Humidity 31    
Precipitation  
Precipitation 0.00 in - - ()
Sea Level Pressure  
Sea Level Pressure 29.93 in    
Wind  
Wind Speed 6 mph (North)    
Max Wind Speed 14 mph    
Max Gust Speed 18 mph    
Visibility 8 miles    
Events Fog    
Averages and records for this station are not official NWS values.
T = Trace of Precipitation, MM = Missing Value Source: NWS Daily Summary

Daily Weather History Graph

Daily Weather History Graph

Search for Another Location

Airport:

Trip Planner

Search our weather history database for the weather conditions in past years. The results will help you decide how hot, cold, wet, or windy it might be!

Date:

Astronomy

Aug. 21, 2013 Rise Set
Actual Time 6:27 AM CDT 8:19 PM CDT
Civil Twilight 5:55 AM CDT 8:51 PM CDT
Nautical Twilight 5:15 AM CDT 9:31 PM CDT
Astronomical Twilight 4:31 AM CDT 10:14 PM CDT
Moon 8:20 PM CDT (8/21) 7:14 AM CDT (8/21)
Length of Visible Light 14h 56m
Length of Day
13h 52m
Waxing Gibbous, 99% of the Moon is Illuminated
Aug 21
Waxing Gibbous
Aug 28
Last Quarter
Sep 5
New
Sep 12
First Quarter
Sep 19
Full

Hourly Weather History & Observations

Time (CDT) Temp. Heat Index Dew Point Humidity Pressure Visibility Wind Dir Wind Speed Gust Speed Precip Events Conditions
12:15 AM 73.4 °F - 71.6 °F 94% 29.79 in 7.0 mi South 8.1 mph - N/A   Clear
12:35 AM 73.4 °F - 71.6 °F 94% 29.80 in 7.0 mi South 9.2 mph - N/A   Clear
12:52 AM 73.4 °F - 71.6 °F 94% 29.80 in 7.0 mi SSW 8.1 mph - N/A   Clear
1:14 AM 73.4 °F - 71.6 °F 94% 29.80 in 5.0 mi South 8.1 mph - N/A   Clear
1:35 AM 73.4 °F - 71.6 °F 94% 29.82 in 5.0 mi SW 4.6 mph - N/A   Clear
1:53 AM 73.4 °F - 71.6 °F 94% 29.83 in 5.0 mi WSW 3.5 mph - N/A   Clear
2:15 AM 71.6 °F - 69.8 °F 94% 29.82 in 5.0 mi South 3.5 mph - N/A   Clear
2:35 AM 71.6 °F - 69.8 °F 94% 29.81 in 5.0 mi Calm Calm - N/A   Clear
2:53 AM 71.6 °F - 69.8 °F 94% 29.81 in 5.0 mi Calm Calm - N/A   Clear
3:15 AM 71.6 °F - 69.8 °F 94% 29.81 in 7.0 mi Calm Calm - N/A   Mostly Cloudy
3:35 AM 71.6 °F - 69.8 °F 94% 29.81 in 5.0 mi Calm Calm - N/A   Scattered Clouds
3:52 AM 71.6 °F - 69.8 °F 94% 29.81 in 4.0 mi Calm Calm - N/A   Clear
4:15 AM 69.8 °F - 69.8 °F 100% 29.81 in 2.0 mi Calm Calm - N/A   Clear
4:34 AM 69.8 °F - 69.8 °F 100% 29.81 in 1.5 mi Calm Calm - N/A   Mist
4:46 AM 66.2 °F - 66.2 °F 100% 29.81 in 1.0 mi Calm Calm - N/A   Mostly Cloudy
5:21 AM 68.0 °F - 66.2 °F 94% 29.82 in 0.5 mi WNW 3.5 mph - N/A   Unknown
5:29 AM 68.0 °F - 66.2 °F 94% 29.82 in 0.2 mi Calm Calm - N/A Fog Fog
5:35 AM 66.2 °F - 66.2 °F 100% 29.82 in 0.2 mi Calm Calm - N/A Fog Fog
5:53 AM 69.8 °F - 68.0 °F 94% 29.83 in 0.8 mi Calm Calm - N/A   Mist
6:15 AM 69.8 °F - 69.8 °F 100% 29.84 in 2.0 mi West 3.5 mph - N/A   Clear
6:35 AM 69.8 °F - 69.8 °F 100% 29.85 in 1.2 mi Calm Calm - N/A   Mist
6:53 AM 68.0 °F - 66.2 °F 94% 29.85 in 0.2 mi Calm Calm - N/A Fog Fog
7:15 AM 66.2 °F - 66.2 °F 100% 29.85 in 0.2 mi NW 4.6 mph - N/A Fog Fog
7:35 AM 69.8 °F - 69.8 °F 100% 29.86 in 1.5 mi Calm Calm - N/A   Mostly Cloudy
7:52 AM 69.8 °F - 69.8 °F 100% 29.87 in 2.5 mi NNW 5.8 mph - N/A   Clear
8:15 AM 69.8 °F - 69.8 °F 100% 29.87 in 5.0 mi North 9.2 mph - N/A   Clear
8:35 AM 69.8 °F - 69.8 °F 100% 29.88 in 10.0 mi North 13.8 mph - N/A   Clear
8:52 AM 71.6 °F - 66.2 °F 83% 29.90 in 10.0 mi North 9.2 mph 18.4 mph N/A   Clear
9:14 AM 73.4 °F - 64.4 °F 73% 29.91 in 10.0 mi North 13.8 mph - N/A   Clear
9:35 AM 71.6 °F - 62.6 °F 73% 29.92 in 10.0 mi North 13.8 mph 18.4 mph N/A   Clear
9:52 AM 73.4 °F - 62.6 °F 69% 29.92 in 10.0 mi NE 9.2 mph - N/A   Clear
10:14 AM 73.4 °F - 60.8 °F 65% 29.93 in 10.0 mi North 9.2 mph - N/A   Clear
10:35 AM 73.4 °F - 60.8 °F 65% 29.94 in 10.0 mi North 8.1 mph - N/A   Clear
10:53 AM 75.2 °F - 60.8 °F 61% 29.94 in 10.0 mi NNE 10.4 mph - N/A   Clear
11:15 AM 77.0 °F - 60.8 °F 57% 29.95 in 10.0 mi NE 9.2 mph 16.1 mph N/A   Clear
11:35 AM 78.8 °F - 60.8 °F 54% 29.95 in 10.0 mi NE 8.1 mph - N/A   Clear
11:52 AM 80.6 °F 81.5 °F 60.8 °F 51% 29.95 in 10.0 mi NNE 9.2 mph - N/A   Clear
12:14 PM 80.6 °F 81.5 °F 60.8 °F 51% 29.96 in 10.0 mi North 11.5 mph - N/A   Clear
12:35 PM 82.4 °F 82.5 °F 59.0 °F 45% 29.96 in 10.0 mi North 9.2 mph - N/A   Clear
12:52 PM 82.4 °F 82.5 °F 59.0 °F 45% 29.96 in 10.0 mi North 6.9 mph - N/A   Clear
1:15 PM 82.4 °F 81.7 °F 55.4 °F 39% 29.97 in 10.0 mi North 9.2 mph - N/A   Clear
1:35 PM 84.2 °F 83.0 °F 55.4 °F 37% 29.98 in 10.0 mi North 10.4 mph - N/A   Clear
1:53 PM 84.2 °F 83.0 °F 55.4 °F 37% 29.98 in 10.0 mi North 9.2 mph - N/A   Clear
2:15 PM 86.0 °F 84.5 °F 55.4 °F 35% 29.98 in 10.0 mi North 11.5 mph - N/A   Clear
2:34 PM 84.2 °F 82.8 °F 53.6 °F 35% 29.98 in 10.0 mi North 6.9 mph - N/A   Clear
2:53 PM 84.2 °F 82.8 °F 53.6 °F 35% 29.98 in 10.0 mi North 6.9 mph - N/A   Clear
3:14 PM 86.0 °F - 51.8 °F 31% 29.98 in 10.0 mi North 10.4 mph - N/A   Clear
3:35 PM 84.2 °F 82.8 °F 53.6 °F 35% 29.99 in 10.0 mi NNE 8.1 mph - N/A   Clear
3:52 PM 86.0 °F 84.2 °F 53.6 °F 33% 29.99 in 10.0 mi NNE 8.1 mph - N/A   Clear
4:14 PM 86.0 °F 84.2 °F 53.6 °F 33% 29.99 in 10.0 mi NNE 10.4 mph - N/A   Clear
4:35 PM 84.2 °F 82.8 °F 53.6 °F 35% 29.99 in 10.0 mi NNE 5.8 mph - N/A   Clear
4:52 PM 86.0 °F 84.2 °F 53.6 °F 33% 29.99 in 10.0 mi North 6.9 mph - N/A   Clear
5:15 PM 84.2 °F 82.8 °F 53.6 °F 35% 29.99 in 10.0 mi North 8.1 mph - N/A   Clear
5:35 PM 84.2 °F 82.8 °F 53.6 °F 35% 30.00 in 10.0 mi NNE 6.9 mph - N/A   Clear
5:53 PM 84.2 °F 82.8 °F 53.6 °F 35% 30.00 in 10.0 mi North 6.9 mph - N/A   Clear
6:15 PM 84.2 °F 82.8 °F 53.6 °F 35% 30.00 in 10.0 mi NNE 5.8 mph - N/A   Clear
6:35 PM 82.4 °F 81.4 °F 53.6 °F 37% 30.00 in 10.0 mi North 9.2 mph - N/A   Clear
6:52 PM 80.6 °F 80.3 °F 53.6 °F 39% 30.00 in 10.0 mi North 6.9 mph - N/A   Clear
7:15 PM 80.6 °F 80.5 °F 55.4 °F 42% 30.01 in 10.0 mi North 6.9 mph - N/A   Clear
7:35 PM 77.0 °F - 55.4 °F 47% 30.02 in 10.0 mi North 5.8 mph - N/A   Clear
7:52 PM 75.2 °F - 55.4 °F 50% 30.02 in 10.0 mi North 6.9 mph - N/A   Clear
8:15 PM 73.4 °F - 55.4 °F 53% 30.03 in 10.0 mi North 4.6 mph - N/A   Clear
8:35 PM 69.8 °F - 55.4 °F 60% 30.04 in 10.0 mi Calm Calm - N/A   Clear
8:52 PM 69.8 °F - 55.4 °F 60% 30.04 in 10.0 mi Calm Calm - N/A   Clear
9:14 PM 66.2 °F - 55.4 °F 68% 30.05 in 10.0 mi North 3.5 mph - N/A   Clear
9:35 PM 66.2 °F - 55.4 °F 68% 30.06 in 10.0 mi North 3.5 mph - N/A   Clear
9:52 PM 66.2 °F - 53.6 °F 64% 30.06 in 10.0 mi North 3.5 mph - N/A   Clear
10:14 PM 64.4 °F - 53.6 °F 68% 30.06 in 10.0 mi North 5.8 mph - N/A   Clear
10:35 PM 64.4 °F - 53.6 °F 68% 30.07 in 10.0 mi North 4.6 mph - N/A   Clear
10:53 PM 66.2 °F - 51.8 °F 60% 30.07 in 10.0 mi North 6.9 mph - N/A   Clear
11:14 PM 68.0 °F - 51.8 °F 56% 30.07 in 10.0 mi North 8.1 mph - N/A   Clear
11:35 PM 66.2 °F - 51.8 °F 60% 30.07 in 10.0 mi North 6.9 mph - N/A   Clear
11:53 PM 66.2 °F - 51.8 °F 60% 30.07 in 10.0 mi NNE 6.9 mph - N/A   Clear